1284681626141,100.015
1284681686141,100.113
1284681746141,99.9148
1284681806141,100.147
1284681866141,100.445
1284681926141,100.344
1284681986141,99.9112
1284682046141,100.262
1284682106141,99.3659
1284682166141,99.7524
1284682226141,99.8858
1284682286141,99.9404
1284682346141,99.8082
1284682406141,99.6438
1284682466141,100.153
1284682526141,99.7067
1284682586141,99.9391
1284682646141,99.8253
1284682706141,99.9819
1284682766141,99.3611
1284682826141,100.058
1284682886141,100.078
1284682946141,99.8753
1284683006141,99.6369
1284683066141,99.7719
1284683126141,99.8076
1284683186141,100.314
1284683246141,100.183
1284683306141,100.102
1284683366141,99.5287
1284683426141,100.056
1284683486141,99.7466
1284683546141,99.7753
1284683606141,99.3627
1284683666141,99.7561
1284683726141,99.4322
1284683786141,99.5590
1284683846141,99.8208
1284683906141,99.8568
1284683966141,99.9278
1284684026141,99.9482
1284684086141,99.7384
1284684146141,99.6987
1284684206141,99.3874
1284684266141,99.8515
1284684326141,99.6670
1284684386141,99.8032
1284684446141,99.6327
1284684506141,100.035
1284684566141,99.5898
1284684626141,99.6431
1284684686141,103.329
1284684746141,99.4477
1284684806141,99.6955
1284684866141,99.9371
1284684926141,99.7483
1284684986141,99.7189
1284685046141,99.7987
1284685106141,99.2898
1284685166141,99.9970
1284685226152,100.128
1284685286152,99.6383
1284685346152,100.108
1284685406152,99.9678
1284685466152,99.5422
1284685526152,99.8029
1284685586152,99.9870
1284685646152,99.3289
1284685706152,99.8368
1284685766152,99.6307
1284685826152,99.9978
1284685886152,100.139
1284685946152,99.6838
1284686006152,99.4461
1284686066152,99.7308
1284686126152,99.6581
1284686186152,99.7469
1284686246152,99.5521
1284686306152,99.5959
1284686366152,99.8028
1284686426152,99.3128
1284686486152,99.6642
1284686546152,99.7437
1284686606152,99.9699
1284686666152,99.8059
1284686726152,99.7240
1284686786152,99.7869
1284686846152,99.1215
1284686906152,99.7393
1284686966152,99.5148
1284687026152,99.3197
1284687086152,99.7971
1284687146152,99.1082
1284687206152,99.7915
1284687266152,99.3834
1284687326152,99.3500
1284687386152,99.5986
1284687446152,99.1731
1284687506152,99.7865
1284687566152,99.5801
1284687626152,99.3743
1284687686152,99.6420
1284687746152,99.2682
1284687806152,99.2014
1284687866152,99.1154
1284687926152,100.184
1284687986152,98.9973
1284688046152,99.6056
1284688106152,99.5913
1284688166152,99.4517
1284688226152,99.3307
1284688286152,99.1273
1284688346152,99.5435
1284688406152,99.3232
1284688466152,99.4085
1284688526152,99.4801
1284688586152,98.8743
1284688646152,99.5984
1284688706152,99.3683
1284688766152,99.5075
1284688826164,99.0733
1284688886164,99.7314
1284688946164,99.7970
1284689006164,99.9863
1284689066164,99.3861
1284689126164,99.7734
1284689186164,99.3798
1284689246164,99.7497
1284689306164,99.4522
1284689366164,99.6474
1284689426164,99.4598
1284689486164,99.7743
1284689546164,99.5481
1284689606164,99.3137
1284689666164,99.4192
1284689726164,99.8465
1284689786164,99.3626
1284689846164,99.6027
1284689906164,99.1530
1284689966164,99.2320
1284690026164,99.4197
1284690086164,98.7579
1284690146164,99.7335
1284690206164,99.4871
1284690266164,99.6168
1284690326164,99.3041
1284690386164,99.0986
1284690446164,99.6537
1284690506164,99.5326
1284690566164,99.3320
1284690626164,99.8062
1284690686164,99.3997
1284690746164,99.5738
1284690806164,99.2376
1284690866164,99.4436
1284690926164,99.0311
1284690986164,99.5164
1284691046164,99.0149
1284691106164,99.3986
1284691166164,99.0698
1284691226164,99.3689
1284691286164,98.8976
1284691346164,98.8026
1284691406164,99.1013
1284691466164,99.1784
1284691526164,99.1671
1284691586164,99.0794
1284691646164,99.3387
1284691706164,99.3455
1284691766164,99.1888
1284691826164,99.0290
1284691886164,99.1583
1284691946164,99.0794
1284692006164,99.3454
1284692066164,99.1295
1284692126164,99.4340
1284692186164,99.1936
1284692246164,99.3174
1284692306164,99.4330
1284692366164,99.5967
1284692426175,99.6881
1284692486175,98.6760
1284692546175,98.9492
1284692606175,98.8795
1284692666175,98.7430
1284692726175,99.4421
1284692786175,99.0450
1284692846175,98.9490
1284692906175,99.6509
1284692966175,99.1747
1284693026175,99.0579
1284693086175,98.8421
1284693146175,99.0161
1284693206175,99.4547
1284693266175,99.5621
1284693326175,98.9172
1284693386175,99.1117
1284693446175,98.8949
1284693506175,99.1370
1284693566175,99.2371
1284693626175,98.8105
1284693686175,99.2445
1284693746175,99.4689
1284693806175,99.3180
1284693866175,98.8595
1284693926175,98.8889
1284693986175,98.7216
1284694046175,98.4866
1284694106175,99.1156
1284694166175,98.7179
1284694226175,98.9486
1284694286175,99.3709
1284694346175,98.8742
1284694406175,99.0557
1284694466175,99.0491
1284694526175,98.6961
1284694586175,98.6883
1284694646175,98.0755
1284694706175,98.7816
1284694766175,98.4470
1284694826175,98.3074
1284694886175,98.4809
1284694946175,99.2277
1284695006175,99.0052
1284695066175,98.6503
1284695126175,98.3999
1284695186175,98.5922
1284695246175,99.0586
1284695306175,98.8015
1284695366175,99.1415
1284695426175,98.7765
1284695486175,99.0706
1284695546175,99.0238
1284695606175,98.9325
1284695666175,98.3159
1284695726175,98.9258
1284695786175,98.9435
1284695846175,98.7208
1284695906175,99.1847
1284695966175,98.3749
1284696026186,98.7242
1284696086186,98.6690
1284696146186,97.9646
1284696206186,98.0379
1284696266186,98.2596
1284696326186,98.3853
1284696386186,98.1358
1284696446186,98.2985
1284696506186,98.1618
1284696566186,98.4136
1284696626186,98.3787
1284696686186,98.1129
1284696746186,98.0587
1284696806186,98.3010
1284696866186,98.2348
1284696926186,98.0361
1284696986186,97.7802
1284697046186,98.3766
1284697106186,97.7715
1284697166186,98.0642
1284697226186,97.9040
1284697286186,98.2662
1284697346186,97.9676
1284697406186,97.8283
1284697466186,97.8632
1284697526186,97.5356
1284697586186,97.5966
1284697646186,97.4894
1284697706186,97.7738
1284697766186,97.3735
1284697826186,98.0716
1284697886186,97.4647
1284697946186,98.2779
1284698006186,97.6572
1284698066186,98.0147
1284698126186,98.2749
1284698186186,98.6408
1284698246186,97.6062
1284698306186,97.8102
1284698366186,97.5942
1284698426186,98.1467
1284698486186,97.8072
1284698546186,97.8398
1284698606186,97.8983
1284698666186,97.8435
1284698726186,97.7521
1284698786186,97.3187
1284698846186,98.0715
1284698906186,97.9876
1284698966186,97.5254
1284699026186,97.7470
1284699086186,97.9312
1284699146186,97.2914
1284699206186,97.5345
1284699266186,97.7742
1284699326186,97.4996
1284699386186,97.9756
1284699446186,97.3269
1284699506186,97.9722
1284699566186,97.8475
1284699626197,97.0106
1284699686197,97.9050
1284699746197,97.4770
1284699806197,97.4106
1284699866197,97.8204
1284699926197,98.0922
1284699986197,97.6875
1284700046197,97.8531
1284700106197,97.6977
1284700166197,98.0067
1284700226197,97.9296
1284700286197,97.7091
1284700346197,97.7951
1284700406197,98.2919
1284700466197,98.1237
1284700526197,98.0327
1284700586197,97.9572
1284700646197,98.0318
1284700706197,97.9618
1284700766197,97.8107
1284700826197,97.6657
1284700886197,97.9941
1284700946197,97.6371
1284701006197,98.1000
1284701066197,97.5700
1284701126197,97.7089
1284701186197,98.3777
1284701246197,97.9632
1284701306197,97.9199
1284701366197,98.0415
1284701426197,98.0190
1284701486197,98.4065
1284701546197,97.8154
1284701606197,98.1878
1284701666197,97.0536
1284701726197,98.3799
1284701786197,98.3702
1284701846197,98.2245
1284701906197,98.0882
1284701966197,97.6476
1284702026197,98.0921
1284702086197,97.5149
1284702146197,98.0919
1284702206197,97.8804
1284702266197,97.8936
1284702326197,97.9977
1284702386197,98.0689
1284702446197,98.6164
1284702506197,97.6184
1284702566197,97.9904
1284702626197,98.2039
1284702686197,98.1623
1284702746197,97.9030
1284702806197,97.9933
1284702866197,97.8027
1284702926197,98.0166
1284702986197,97.7648
1284703046197,98.5452
1284703106197,97.6191
1284703166197,97.8488
1284703226208,98.3168
1284703286208,98.1423
1284703346208,98.0153
1284703406208,98.0331
1284703466208,98.2245
1284703526208,97.9995
1284703586208,98.0315
1284703646208,97.2449
1284703706208,97.3395
1284703766208,97.5852
1284703826208,98.0583
1284703886208,98.2090
1284703946208,97.8030
1284704006208,97.2032
1284704066208,98.0700
1284704126208,97.3438
1284704186208,97.6893
1284704246208,97.1027
1284704306208,97.9234
1284704366208,97.7667
1284704426208,97.5811
1284704486208,97.4552
1284704546208,97.7764
1284704606208,97.5442
1284704666208,97.0534
1284704726208,97.4038
1284704786208,97.8129
1284704846208,97.1177
1284716366242,98.2428
1284716426241,97.3986
1284716486241,98.3613
1284716546241,98.1350
1284716606241,98.3885
1284716666241,97.7410
1284716726241,97.8137
1284716786241,97.7359
1284716846241,97.9678
1284716906241,98.2462
1284716966241,97.6328
1284717026241,97.7205
1284717086241,97.8531
1284717146241,97.7191
1284717206241,98.4893
1284717266241,97.8907
1284717326241,97.7589
1284717386241,97.9243
1284717446241,97.8271
1284717506242,98.2375
1284717566242,98.0380
1284717626253,98.0666
1284717686253,98.0348
1284717746253,97.9154
1284717806253,98.0923
1284717866253,97.7510
1284717926253,97.8995
1284717986253,97.8422
1284718046253,98.2254
1284718106253,98.0380
1284718166253,97.5495
1284718226253,98.1570
1284718286253,97.9179
1284718346253,98.0687
1284718406253,97.6868
1284718466253,98.0201
1284718526253,97.9286
1284718586253,98.2561
1284718646253,98.2086
1284718706253,97.9452
1284718766253,98.3353
1284718826253,97.8540
1284718886253,98.3706
1284718946253,98.4351
1284719006253,98.2334
1284719066253,98.2193
1284719126253,98.0001
1284719186253,98.0484
1284719246253,98.2851
1284719306253,97.5906
1284719366253,97.2516
1284719426253,97.8857
1284719486253,98.1230
1284719546253,98.2061
1284719606253,98.2756
1284719666253,98.1599
1284719726253,98.3600
1284719786253,98.7737
1284719846253,97.7337
1284719906253,97.9054
1284719966253,98.4550
1284720026253,98.5364
1284720086253,98.0331
1284720146253,98.0837
1284720206253,98.1603
1284720266253,98.3273
1284720326253,98.1562
1284720386253,97.7561
1284720446253,98.4770
1284720506253,97.9473
1284720566253,98.4420
1284720626253,98.5915
1284720686253,98.6349
1284720746253,98.2017
1284720806253,98.6324
1284720866253,98.7616
1284720926253,98.3611
1284720986253,98.7854
1284721046253,97.9422
1284721106253,98.9609
1284721166253,99.0666
1284721226265,98.7682
1284721286265,98.5079
1284721346265,98.9238
1284721406265,98.8562
1284721466265,98.6543
1284721526265,98.9632
1284721586265,98.6658
1284721646265,98.7663
1284721706265,98.7397
1284721766265,99.0628
1284721826265,99.0277
1284721886265,98.9275
1284721946265,98.6324
1284722006265,98.2733
1284722066265,98.7776
1284722126265,98.5342
1284722186265,98.3785
1284722246265,98.7971
1284722306265,98.6280
1284722366265,98.8616
1284722426265,99.1486
1284722486265,98.7581
1284722546265,98.8263
1284722606265,98.8458
1284722666265,98.9623
1284722726265,98.1970
1284722786265,98.9045
1284722846265,98.7704
1284722906265,98.6824
1284722966265,98.7046
1284723026265,99.2024
1284723086265,98.4497
1284723146265,99.0053
1284723206265,99.0679
1284723266265,99.1265
1284723326265,98.9150
1284723386265,98.6484
1284723446265,98.8621
1284723506265,98.8425
1284723566265,98.9193
1284723626265,98.7877
1284723686265,98.8781
1284723746265,98.7900
1284723806265,98.9779
1284723866265,98.7675
1284723926265,98.5125
1284723986265,98.5671
1284724046265,99.4045
1284724106265,99.0570
1284724166265,98.9801
1284724226265,99.0598
1284724286265,99.0864
1284724346265,99.2881
1284724406265,98.9847
1284724466265,99.2604
1284724526265,99.0521
1284724586265,99.5425
1284724646265,99.0160
1284724706265,99.2560
1284724766265,99.1318
1284724826277,99.0310
1284724886277,98.3569
1284724946277,98.9673
1284725006277,99.2079
1284725066277,98.8645
1284725126277,98.7604
1284725186277,98.7727
1284725246277,99.5275
1284725306277,99.4717
1284725366277,98.6598
1284725426277,98.9308
1284725486277,99.3831
1284725546277,99.5529
1284725606277,99.0854
1284725666277,99.1372
1284725726277,99.1556
1284725786277,98.9118
1284725846277,98.8192
1284725906277,99.4059
1284725966277,99.5310
1284726026277,99.3108
1284726086277,99.3822
1284726146277,99.3433
1284726206277,98.7792
1284726266277,99.0051
1284726326277,99.4798
1284726386277,98.7896
1284726446277,99.3199
1284726506277,99.1800
1284726566277,99.1717
1284726626277,99.1155
1284726686277,99.2096
1284726746277,99.6189
1284726806277,98.8574
1284726866277,99.8125
1284726926277,99.5903
1284726986277,99.3398
1284727046277,98.9409
1284727106277,98.8349
1284727166277,99.2523
1284727226277,99.4034
1284727286277,99.1483
1284727346277,99.5284
1284727406277,99.5356
1284727466277,99.8886
1284727526277,99.7861
1284727586277,99.4430
1284727646277,99.6188
1284727706277,99.6665
1284727766277,99.5662
1284727826277,99.6427
1284727886277,99.8986
1284727946277,99.9718
1284728006277,99.8839
1284728066277,99.8237
1284728126277,100.117
1284728186277,99.1629
1284728246277,100.025
1284728306277,99.8595
1284728366277,99.5716
1284728426290,99.5853
1284728486290,99.2993
1284728546290,99.3566
1284728606290,99.5164
1284728666290,99.5991
1284728726290,99.7900
1284728786290,99.5393
1284728846290,99.6111
1284728906290,99.8537
1284728966290,99.6583
1284729026290,99.7031
1284729086290,99.5397
1284729146290,99.4204
1284729206290,99.8462
1284729266290,99.5375
1284729326290,99.5675
1284729386290,99.8216
1284729446290,99.9509
1284729506290,99.6374
1284729566290,99.8053
1284729626290,99.5131
1284729686290,99.7301
1284729746290,99.7363
1284729806290,99.4043
1284729866290,100.993
1284729926290,99.2370
1284729986290,99.8879
1284730046290,99.6216
1284730106290,100.097
1284730166290,99.6659
1284730226290,99.8739
1284730286290,99.6690
1284730346290,99.9731
1284730406290,99.3608
1284730466290,99.8605
1284730526290,99.8592
1284730586290,100.197
1284730646290,99.3052
1284730706290,100.158
1284730766290,100.045
1284730826290,99.6678
1284730886290,100.051
1284730946290,99.7095
1284731006290,100.237
1284731066290,99.8004
1284731126290,99.8999
1284731186290,99.8545
1284731246290,99.9374
1284731306290,100.102
1284731366290,100.237
1284731426290,100.097
1284731486290,99.6860
1284731546290,100.140
1284731606290,99.9745
1284731666290,99.8001
1284731726290,99.9464
1284731786290,100.055
1284731846290,99.3855
1284731906290,100.051
1284731966290,99.8490
1284732026303,100.175
1284732086303,99.5827
1284732146303,99.4266
1284732206303,99.5049
1284732266303,99.3189
1284732326303,99.7218
1284732386303,100.120
1284732446303,99.2774
1284732506303,99.7319
1284732566303,100.074
1284732626303,99.5766
1284732686303,99.3792
1284732746303,100.280
1284732806303,99.4981
1284732866303,99.6386
1284732926303,98.9620
1284732986303,99.4948
1284733046303,99.7052
1284733106303,99.5766
1284733166303,99.8687
1284733226303,99.5602
1284733286303,99.1533
1284733346303,99.5422
1284733406303,99.5119
1284733466303,99.3858
1284733526303,99.7553
1284733586303,100.457
1284733646303,99.5438
1284733706303,99.7990
1284733766303,99.4526
1284733826303,99.9183
1284733886303,99.9385
1284733946303,99.7507
1284734006303,99.3553
1284734066303,99.7566
1284734126303,99.7468
1284734186303,99.5145
1284734246303,99.4628
1284734306303,99.1814
1284734366303,99.4768
1284734426303,99.6596
1284734486303,99.2578
1284734546303,99.4879
1284734606303,99.2123
1284734666303,99.0554
1284734726303,99.0565
1284734786303,99.2547
1284734846303,99.5237
1284734906303,99.5547
1284734966303,99.5518
1284735026303,99.5192
1284735086303,99.7604
1284735146303,98.9758
1284735206303,99.1978
1284735266303,99.3810
1284735326303,99.6087
1284735386303,99.2899
1284735446303,98.8200
1284735506303,99.3473
1284735566303,99.5050
1284735626316,99.2404
1284735686316,99.3785
1284735746316,99.2161
1284735806316,99.3696
1284735866316,99.5410
1284735926316,99.4632
1284735986316,99.9297
1284736046316,99.6812
1284736106316,99.1456
1284736166316,99.0185
1284736226316,99.0733
1284736286316,99.4041
1284736346316,99.6091
1284736406316,98.9169
1284736466316,99.0657
1284736526316,99.5260
1284736586316,99.1477
1284736646316,99.5086
1284736706316,99.1860
1284736766316,99.0958
1284736826316,99.3061
1284736886316,99.1216
1284736946316,99.2186
1284737006316,99.3166
1284737066316,99.2397
1284737126316,99.2397
1284737186316,99.3453
1284737246316,99.4327
1284737306316,99.0487
1284737366316,99.8040
1284737426316,100.028
1284737486316,99.5949
1284737546316,99.0959
1284737606316,99.2835
1284737666316,99.3423
1284737726316,98.9437
1284737786316,99.0566
1284737846316,99.4066
1284737906316,99.3583
1284737966316,99.1027
1284738026316,99.2529
1284738086316,99.3126
1284738146316,99.1276
1284738206316,98.9641
1284738266316,98.8185
1284738326316,98.9626
1284738386316,98.9183
1284738446316,99.3791
1284738506316,99.0549
1284738566316,99.0385
1284738626316,98.9986
1284738686316,99.3218
1284738746316,99.4980
1284738806316,99.0523
1284738866316,99.3495
1284738926316,98.9062
1284738986316,98.7885
1284739046316,98.6323
1284739106316,98.6378
1284739166316,99.1444
1284739226329,99.2550
1284739286329,98.8710
1284739346329,99.1726
1284739406329,99.1381
1284739466329,98.3706
1284739526329,98.8035
1284739586329,99.3391
1284739646329,99.3278
1284739706329,99.0187
1284739766329,99.1697
1284739826329,98.7345
1284739886329,98.8753
1284739946329,98.7552
1284740006329,98.3929
1284740066329,98.5959
1284740126329,98.9103
1284740186329,98.5732
1284740246329,98.7455
1284740306329,98.6755
1284740366329,98.9748
1284740426329,99.1445
1284740486329,98.2360
1284740546329,98.7773
1284740606329,98.3982
1284740666329,99.2574
1284740726329,98.1592
1284740786329,98.3701
1284740846329,98.4134
1284740906329,98.5776
1284740966329,97.7954
1284741026329,97.9756
1284741086329,98.6747
1284741146329,98.5025
1284741206329,98.6864
1284741266329,98.2426
1284741326329,98.5044
1284741386329,98.0644
1284741446329,98.0226
1284741506329,98.1138
1284741566329,98.4184
1284741626329,97.8485
1284741686329,98.6765
1284741746329,98.3459
1284741806329,98.0388
1284741866329,98.4493
1284741926329,98.1998
1284741986329,98.7087
1284742046329,98.3837
1284742106329,97.8561
1284742166329,97.9616
1284742226329,98.2767
1284742286329,98.3357
1284742346329,98.5335
1284742406329,98.4562
1284742466329,97.7569
1284742526329,98.1928
1284742586329,98.5920
1284742646329,98.1425
1284742706329,98.1436
1284742766329,98.5103
1284742826342,98.1984
1284742886342,98.7676
1284742946342,98.0857
1284743006342,98.1543
1284743066342,98.3951
1284743126342,97.8626
1284743186342,97.6127
1284743246342,98.1503
1284743306342,98.0526
1284743366342,98.6256
1284743426342,98.2154
1284743486342,98.2116
1284743546342,98.2508
1284743606342,97.9200
1284743666342,97.9972
1284743726342,97.9375
1284743786342,98.1170
1284743846342,98.4219
1284743906342,97.9676
1284743966342,98.3298
1284744026342,98.1079
1284744086342,98.4957
1284744146342,98.0066
1284744206342,98.3731
1284744266342,98.0860
1284744326342,98.6329
1284744386342,98.5713
1284744446342,98.3887
1284744506342,98.3496
1284744566342,98.2961
1284744626342,98.1969
1284744686342,98.4261
1284744746342,98.6411
1284744806342,98.5070
1284744866342,98.2633
1284744926342,98.5339
1284744986342,98.4640
1284745046342,98.9923
1284745106342,98.6348
1284745166342,98.2144
1284745226342,98.8282
1284745286342,98.3487
1284745346342,98.7805
1284745406342,98.7786
1284745466342,97.7288
1284745526342,98.6260
1284745586342,98.4463
1284745646342,98.3260
1284745706342,98.0579
1284745766342,98.6040
1284745826342,99.0355
1284745886342,98.5835
1284745946342,98.9214
1284746006342,98.7773
1284746066342,98.6147
1284746126342,98.6292
1284746186342,98.4920
1284746246342,98.6970
1284746306342,98.3906
1284746366342,98.8610
1284746426356,98.9380
1284746486356,98.7771
1284746546356,98.3307
1284746606356,98.5265
1284746666356,98.6355
1284746726356,98.8088
1284746786356,98.6330
1284746846356,98.0923
1284746906356,98.5129
1284746966356,98.6459
1284747026356,98.9620
1284747086356,98.5851
1284747146356,98.9135
1284747206356,98.4043
1284747266356,98.6160
1284747326356,98.3400
1284747386356,98.6649
1284747446356,98.4177
1284747506356,98.3066
1284747566356,98.4663
1284747626356,98.4825
1284747686356,98.3718
1284747746356,98.1233
1284747806356,98.6411
1284747866356,98.5553
1284747926356,98.6376
1284747986356,98.3699
1284748046356,98.5683
1284748106356,98.6790
1284748166356,98.7761
1284748226356,98.6529
1284748286356,98.5014
1284748346356,99.2917
1284748406356,98.9623
1284748466356,98.4526
1284748526356,98.5540
1284748586356,98.9903
1284748646356,98.3273
1284748706356,99.0894
1284748766356,98.4286
1284748826356,99.2245
1284748886356,98.8461
1284748946356,98.4434
1284749006356,98.5641
1284749066356,98.5743
1284749126356,98.7190
1284749186356,99.4660
1284749246356,98.9004
1284749306356,98.8479
1284749366356,98.6695
1284749426356,98.4046
1284749486356,98.9602
1284749546356,98.2512
1284749606356,98.8383
1284749666356,98.3369
1284749726356,98.6714
1284749786356,98.5174
1284749846356,98.4885
1284749906356,98.6758
1284749966356,98.7326
1284750026369,98.7055
1284750086369,98.7913
1284750146369,98.9877
1284750206369,98.8460
1284750266369,99.3267
1284750326369,98.7029
1284750386369,98.1969
1284750446369,98.7287
1284750506369,99.0104
1284750566369,99.0829
1284750626369,98.7429
1284750686369,98.8384
1284750746369,98.5777
1284750806369,98.9729
1284750866369,99.3061
1284750926369,98.0793
1284750986369,98.7792
1284751046369,99.1123
1284751106369,99.2072
1284751166369,99.2949
1284751226369,98.7837
1284751286369,99.2163
1284751346369,98.7914
1284751406369,99.3646
1284751466369,99.0908
1284751526369,99.0600
1284751586369,98.9183
1284751646369,99.1147
1284751706369,98.8284
1284751766369,99.3171
1284751826369,99.2892
1284751886369,99.3515
1284751946369,99.3446
1284752006369,99.2152
1284752066369,99.0907
1284752126369,99.4353
1284752186369,99.6425
1284752246369,98.8057
1284752306369,99.0519
1284752366369,99.0716
1284752426369,99.1959
1284752486369,99.3907
1284752546369,99.5795
1284752606369,99.3717
1284752666369,99.2246
1284752726369,99.3922
1284752786369,99.9694
1284752846369,99.2758
1284752906369,99.1377
1284752966369,99.7435
1284753026369,98.8954
1284753086369,99.3074
1284753146369,99.3807
1284753206369,99.3103
1284753266369,99.2556
1284753326369,99.3625
1284753386369,99.2779
1284753446369,99.3937
1284753506369,99.8478
1284753566369,99.2557
1284753626383,99.8741
1284753686383,99.2713
1284753746383,99.1026
1284753806383,99.3719
1284753866383,99.7501
1284753926383,99.3951
1284753986383,99.7705
1284754046383,98.8324
1284754106383,99.5376
1284754166383,99.3593
1284754226383,99.2308
1284754286383,99.3689
1284754346383,99.4105
1284754406383,99.3205
1284754466383,99.3391
1284754526383,99.4881
1284754586383,99.5627
1284754646383,99.6241
1284754706383,99.0620
1284754766383,99.1372
1284754826383,99.6409
1284754886383,99.2681
1284754946383,99.5507
1284755006383,99.4690
1284755066383,99.4409
1284755126383,99.9034
1284755186383,99.4089
1284755246383,99.7607
1284755306383,99.3933
1284755366383,99.1408
1284755426383,99.4488
1284755486383,99.4923
1284755546383,99.3060
1284755606383,99.7193
1284755666383,99.6266
1284755726383,99.9865
1284755786383,99.9482
1284755846383,99.1128
1284755906383,99.5674
1284755966383,99.3770
1284756026383,99.5208
1284756086383,99.5896
1284756146383,99.9016
1284756206383,99.7830
1284756266383,99.1528
1284756326383,99.8951
1284756386383,99.6030
1284756446383,99.9235
1284756506383,100.025
1284756566383,99.5059
1284756626383,99.7050
1284756686383,99.4169
1284756746383,99.6450
1284756806383,99.5674
1284756866383,99.5241
1284756926383,99.7916
1284756986383,100.138
1284757046383,99.8980
1284757106383,99.4155
1284757166383,99.9733
1284757226396,99.4108
1284757286396,99.5384
1284757346396,99.3814
1284757406396,99.4040
1284757466396,99.9592
1284757526396,99.7915
1284757586396,99.4497
1284757646396,100.104
1284757706396,100.064
1284757766396,99.8653
1284757826396,99.4773
1284757886396,99.7939
1284758486396,99.0987
1284758546396,99.6083
1284758606396,99.8467
1284758666396,99.8559
1284758726396,99.8092
1284758786396,99.8271
1284758846396,99.5584
1284758906396,99.8964
1284758966396,99.7515